Overview Statistics Trail Chart Weather Telemetry Raw packets
 

This is the latest recevied weather packets stored in our database for station/object KB4JHU-15. If no packets are shown the sender has not sent any weather packets the latest 10 day(s).

<< 11 12 13 14 15 16 17 >>
Time Temp. Humidity Pressure Rain* Wind** Luminosity Snow
1788042159 31.67° C 50% - 0 mm - - -
1788040358 32.78° C 45% - 0 mm - - -
1788038557 34.44° C 41% - 0 mm - - -
1788036756 34.44° C 38% - 0 mm - - -
1788034955 33.89° C 39% - 0 mm - - -
1788033154 32.78° C 43% - 0 mm - - -
1788031353 32.22° C 43% - 0 mm - - -
1788029552 33.33° C 40% - 0 mm - - -
1788027751 31.67° C 45% - 0 mm - - -
1788025950 31.67° C 47% - 0 mm - - -
1788024149 32.22° C 49% - 0 mm - - -
1788022348 31.11° C 53% - 0 mm - - -
1788020547 30° C 58% - 0 mm - - -
1788018746 29.44° C 62% - 0 mm - - -
1788016945 28.33° C 64% - 0 mm - - -
1788015144 27.78° C 65% - 0 mm - - -
1788013343 27.78° C 68% - 0 mm - - -
1788011542 26.11° C 72% - 0 mm - - -
1788009741 23.33° C 79% - 0 mm - - -
1788007940 20.56° C 91% - 0 mm - - -
1788006139 19.44° C 95% - 0 mm - - -
1788004345 18.89° C 94% - 0 mm - - -
1788002537 18.89° C 94% - 0 mm - - -
1788000736 19.44° C 93% - 0 mm - - -
1787998935 18.89° C 93% - 0 mm - - -

* Rain latest hour (hover to see other rain measurements)
** Current wind speed in m/s (hover to see current wind gust speed)